SCP
0 0 0 0 0 0 0 0 0 0 0 0 0 0 0 0 0 0 0 0 0 0 0 0 0 0 0 0 0 0 0 0 0 0 0 0 0 0 0 0 0 0 0 0
0 0 0 0 0 0 0 0 0 0 0 0 0 0 0 0 0 0 0 0 0 0 0 0 0 0 0 0 0 0 0 0 0 0 0 0 0 0 0 0 0 0 0 0
0 0 0 0 0 0 0 0 0 0 0 0 0 0 0 0 0 0 0 0 0 0 0 0 0 0 0 0 0 0 0 0 0 0 0 0 0 0 0 0 0 0 0 0
0 0 0 0 0 0 0 0 0 0 0 0 0 0 0 0 0 0 0 0 0 0 0 0 0 0 0 0 0 0 0 0 0 0 0 0 0 0 0 0 0 0 0 0
0 0 0 0 0 0 0 0 0 0 0 0 0 0 0 0 0 0 0 0 0 0 0 0 0 0 0 0 0 0 0 0 0 0 0 0 0 0 0 0 0 0 0 0
0 0 0 0 0 0 0 0 0 0 0 0 0 0 0 0 0 0 0 0 0 0 0 0 0 0 0 0 0 0 0 0 0 0 0 0 0 0 0 0 0 0 0 0
0 0 0 0 0 0 0 0 0 0 0 0 0 0 0 0 0 0 0 0 0 0 0 0 0 0 0 0 0 0 0 0 0 0 0 0 0 0 0 0 0 0 0 0
0 0 0 0 0 0 0 0 0 0 0 0 0 0 0 0 0 0 0 0 0 0 0 0 0 0 0 0 0 0 0 0 0 0 0 0 0 0 0 0 0 0 0 0
0 0 0 0 0 0 0 0 0 0 0 0 0 0 0 0 0 0 0 0 0 0 0 0 0 0 0 0 0 0 0 0 0 0 0 0 0 0 0 0 0 0 0 0
0 0 0 0 0 0 0 0 0 0 0 0 0 0 0 0 0 0 0 0 0 0 0 0 0 0 0 0 0 0 0 0 0 0 0 0 0 0 0 0 0 0 0 0
0 0 0 0 0 0 0 0 0 0 0 0 0 0 0 0 0 0 0 0 0 0 0 0 0 0 0 0 0 0 0 0 0 0 0 0 0 0 0 0 0 0 0 0
0 0 0 0 0 0 0 0 0 0 0 0 0 0 0 0 0 0 0 0 0 0 0 0 0 0 0 0 0 0 0 0 0 0 0 0 0 0 0 0 0 0 0 0
0 0 0 0 0 0 0 0 0 0 0 0 0 0 0 0 0 0 0 0 0 0 0 0 0 0 0 0 0 0 0 0 0 0 0 0 0 0 0 0 0 0 0 0
0 0 0 0 0 0 0 0 0 0 0 0 0 0 0 0 0 0 0 0 0 0 0 0 0 0 0 0 0 0 0 0 0 0 0 0 0 0 0 0 0 0 0 0
0 0 0 0 0 0 0 0 0 0 0 0 0 0 0 0 0 0 0 0 0 0 0 0 0 0 0 0 0 0 0 0 0 0 0 0 0 0 0 0 0 0 0 0
0 0 0 0 0 0 0 0 0 0 0 0 0 0 0 0 0 0 0 0 0 0 0 0 0 0 0 0 0 0 0 0 0 0 0 0 0 0 0 0 0 0 0 0
0 0 0 0 0 0 0 0 0 0 0 0 0 0 0 0 0 0 0 0 0 0 0 0 0 0 0 0 0 0 0 0 0 0 0 0 0 0 0 0 0 0 0 0
0 0 0 0 0 0 0 0 0 0 0 0 0 0 0 0 0 0 0 0 0 0 0 0 0 0 0 0 0 0 0 0 0 0 0 0 0 0 0 0 0 0 0 0
0 0 0 0 0 0 0 0 0 0 0 0 0 0 0 0 0 0 0 0 0 0 0 0 0 0 0 0 0 0 0 0 0 0 0 0 0 0 0 0 0 0 0 0
0 0 0 0 0 0 0 0 0 0 0 0 0 0 0 0 0 0 0 0 0 0 0 0 0 0 0 0 0 0 0 0 0 0 0 0 0 0 0 0 0 0 0 0
0 0 0 0 0 0 0 0 0 0 0 0 0 0 0 0 0 0 0 0 0 0 0 0 0 0 0 0 0 0 -0 0 0 0 0 0 0 0 0 0 0 0 0 0
0 0 0 0 0 0 0 0 0 0 0 0 0 0 0 0 0 0 0 0 0 0 0 0 0 0 0 0 0 0 0 0 0 0 0 0 0 0 0 0 0 0 0 0
0 0 0 0 0 0 0 0 0 0 0 0 0 0 0 0 0 0 0 0 0 0 0 0 0 0 0 0 0 0 0 0 0 0 0 0 0 0 0 0 0 0 0 0
0 0 0 0 0 0 0 0 0 0 0 0 0 0 0 0 0 0 0 0 0 0 0 0 0 0 0 0 0 0 0 0 0 0 0 0 0 0 0 0 0 0 0 0
0 0 0 0 0 0 0 0 0 0 0 0 0 0 0 0 0 0 0 0 0 0 0 0 0 0 0 0 0 0 0 0 0 0 -0 0 0 0 0 0 0 0 0 0
0 0 0 0 0 0 0 0 0 0 0 0 0 0 0 0 0 0 0 0 0 0 0 0 0 0 0 0 0 -0 0 0 0 0 -0 0 0 0 0 0 0 0 0 0
0 0 0 0 0 0 0 0 0 0 0 0 0 0 0 0 0 0 0 0 0 0 0 0 0 0 0 0 0 0 0 0 0 -0 -0 0 0 0 0 0 0 0 0 0
Wind_Speed
3 3 2 3 5 2 3 4 5 5 6 8 6 6 6 6 7 9 9 9 9 9 8 8 8 8 7 7 6 6 5 5 6 5 5 4 4 4 3 3 3 3 2 2
3 2 3 5 6 4 3 3 4 5 8 6 5 4 5 6 7 8 9 9 10 9 9 9 8 8 8 7 7 6 5 5 6 5 5 5 5 4 3 3 3 3 3 3
3 5 5 6 4 2 2 3 4 6 7 5 6 7 7 7 7 8 8 9 10 10 9 9 8 8 8 8 7 6 5 6 6 5 5 5 5 4 4 4 3 3 3 3
2 5 4 6 1 1 3 4 4 5 5 5 6 8 7 5 5 7 8 9 9 9 9 9 8 7 7 7 6 6 6 6 6 5 5 5 4 4 4 4 3 3 4 4
1 2 7 7 2 1 2 6 3 4 6 7 6 6 5 4 4 6 8 8 8 8 9 8 8 7 7 7 6 6 6 6 6 6 6 5 4 4 4 3 3 3 3 3
2 1 6 6 3 1 1 6 3 3 5 5 5 5 7 6 7 8 8 7 8 8 7 7 7 7 7 7 6 6 7 7 6 6 6 5 5 4 3 3 3 3 4 3
2 4 9 6 2 1 1 6 4 3 4 3 3 6 7 8 8 7 8 8 8 7 7 7 7 6 7 6 7 7 7 7 6 6 6 5 4 3 3 3 3 3 4 3
3 3 9 2 3 4 7 3 3 4 4 5 6 7 8 8 8 9 9 8 8 7 7 7 6 6 7 7 7 7 6 6 6 6 5 4 3 3 3 2 3 3 3 3
8 9 5 3 5 4 2 4 4 4 5 5 7 8 8 8 8 8 8 8 7 7 8 8 7 6 7 8 7 6 6 6 6 6 5 4 4 3 3 2 2 3 3 3
5 8 6 5 5 4 3 4 5 5 5 5 6 8 8 8 8 8 8 7 7 7 8 9 8 7 7 7 7 6 6 6 5 5 5 4 3 3 2 2 3 3 3 3
6 7 6 5 5 6 5 5 5 5 5 5 6 7 7 7 8 7 8 7 6 6 7 9 9 8 8 7 6 6 6 5 5 5 4 4 4 3 4 3 4 4 4 4
7 5 4 6 4 3 4 5 5 5 6 5 5 7 7 7 7 7 7 7 7 7 8 8 8 8 8 7 6 5 5 5 4 4 4 4 4 4 6 5 7 8 8 7
5 3 4 6 4 3 3 5 5 5 5 6 5 5 6 7 7 6 7 7 7 7 8 8 8 8 8 7 6 5 5 5 4 4 4 4 4 4 5 6 7 8 8 8
4 3 5 4 4 4 4 4 4 4 4 4 5 5 5 6 6 6 7 7 7 7 7 7 8 8 8 6 6 6 5 6 5 4 4 4 4 4 4 4 5 5 6 9
4 4 5 4 5 5 4 3 4 5 5 5 4 5 5 6 7 7 7 7 7 7 7 7 8 8 8 6 6 6 5 4 4 4 4 4 4 4 4 4 4 4 4 6
3 3 4 4 6 5 4 4 4 5 5 5 5 6 6 6 6 7 6 6 6 8 8 7 8 8 7 6 6 5 4 8 7 4 4 4 3 3 3 3 4 4 4 5
3 4 4 5 5 5 5 5 5 5 5 5 6 6 6 6 6 7 7 6 6 7 7 7 8 8 7 6 5 4 4 5 8 5 4 4 4 4 4 3 3 4 4 5
6 6 5 5 5 5 5 5 4 5 5 5 5 5 5 6 7 8 7 7 6 7 7 7 7 7 6 6 4 3 3 4 4 4 4 4 4 3 3 3 4 4 4 5
4 5 4 5 4 4 4 5 5 5 5 4 5 5 5 6 6 7 6 6 6 7 8 7 10 7 6 7 6 3 4 4 4 4 3 5 5 4 4 3 4 4 4 4
3 3 3 4 3 3 4 4 4 4 4 4 4 5 6 6 6 6 6 5 5 5 7 8 7 6 6 6 7 3 4 4 4 4 3 3 3 3 3 4 4 4 4 3
4 4 4 4 4 4 4 4 4 5 5 4 4 5 6 7 6 5 5 6 6 6 7 9 6 5 5 5 6 3 3 3 3 3 3 3 3 3 3 3 3 3 3 3
3 3 4 4 3 4 4 3 4 4 5 5 5 5 5 6 6 5 5 5 6 10 6 4 4 7 8 7 3 3 3 4 4 3 3 3 3 3 3 3 3 3 3 3
3 3 4 4 4 4 4 4 4 4 5 5 5 5 5 5 4 5 6 4 5 9 7 4 8 11 11 5 3 3 4 4 4 4 3 3 3 3 3 4 3 3 3 3
3 3 3 3 2 3 4 5 4 4 4 5 5 5 5 4 4 3 4 8 11 11 6 8 12 12 10 4 3 3 3 4 4 3 3 3 3 3 3 3 4 4 3 3
3 3 2 3 3 4 4 4 4 4 4 4 5 5 4 3 4 5 4 6 9 9 5 8 12 11 6 3 3 4 4 4 4 4 3 3 3 3 3 3 3 4 4 3
2 2 3 3 3 3 3 3 3 3 4 4 4 4 4 3 4 4 4 5 6 8 6 4 5 6 4 4 4 4 4 5 5 4 4 4 4 4 4 4 5 4 4 4
2 2 2 2 2 2 2 3 3 4 4 4 5 5 4 4 4 4 4 4 4 4 4 4 4 4 4 4 4 4 4 4 4 4 4 4 4 4 4 5 4 4 4 4
Wind_Direction
242 272 292 300 305 305 196 206 217 254 263 280 295 297 304 312 320 329 332 335 336 334 331 331 333 334 333 331 332 335 337 338 331 326 324 324 318 310 307 304 298 288 283 278
295 292 313 305 301 293 254 235 246 276 281 284 300 304 309 314 320 324 325 326 326 326 326 326 327 327 329 329 330 332 333 331 329 332 329 324 317 312 309 303 300 301 292 280
297 323 342 303 279 245 246 228 210 246 269 315 319 313 306 306 311 311 316 320 321 319 317 317 318 319 321 321 323 326 325 325 325 327 327 324 320 316 306 293 291 288 283 276
313 7 290 255 281 250 255 266 238 261 289 298 291 292 289 286 296 305 313 316 316 315 313 313 313 317 318 318 319 320 320 320 320 321 318 314 314 313 309 295 281 276 276 273
81 304 282 294 295 221 250 286 244 255 286 300 316 313 298 293 303 299 302 304 304 305 306 310 315 318 319 318 319 321 320 318 316 315 312 309 306 302 299 300 299 290 280 273
124 231 261 267 289 295 97 293 275 251 282 306 340 325 298 318 317 310 310 311 311 312 314 316 317 320 319 318 320 316 313 313 312 309 304 301 293 289 290 292 293 297 293 282
194 238 266 264 276 87 139 268 298 268 272 274 254 252 285 308 310 309 311 313 316 316 317 314 317 321 318 314 309 307 310 312 313 312 305 297 291 289 286 286 288 283 285 287
171 217 261 239 137 190 231 276 290 279 271 265 273 286 297 303 307 313 317 321 324 322 319 319 322 323 317 310 308 311 312 311 312 312 306 306 304 297 287 278 279 278 281 287
197 219 245 194 214 240 250 267 271 272 277 278 287 293 301 304 306 309 313 317 321 318 318 321 326 323 313 311 315 318 318 316 315 315 314 310 303 298 295 280 273 278 274 278
258 265 262 253 259 269 252 255 273 276 281 283 287 294 300 303 307 310 313 315 319 321 322 322 325 323 311 311 318 318 318 318 320 321 320 319 308 296 289 276 271 270 271 272
260 280 304 279 252 260 270 275 282 286 279 280 288 296 300 301 302 305 309 312 315 316 315 316 321 321 319 321 323 320 317 317 321 320 315 314 313 302 291 276 271 275 272 266
238 243 236 269 281 277 274 277 278 285 292 292 283 287 296 297 298 301 305 310 314 315 315 315 320 321 323 324 324 321 319 321 320 319 316 314 314 317 313 305 306 301 293 282
245 266 251 274 293 295 279 282 286 281 280 291 294 289 294 298 302 305 308 311 310 309 309 312 317 319 321 324 324 321 316 317 317 318 317 315 316 317 318 324 325 322 316 304
258 282 285 283 288 300 292 293 296 296 293 290 296 303 302 302 306 309 308 308 308 309 310 313 315 315 318 321 321 319 315 313 317 313 312 311 311 310 311 317 322 322 321 321
256 238 253 285 300 305 306 309 312 309 309 309 309 310 310 309 306 305 306 312 315 314 314 315 315 315 320 321 321 317 314 315 315 314 313 310 309 311 312 313 315 318 326 329
284 273 267 279 286 294 305 306 301 300 305 305 307 306 303 299 299 304 311 317 317 314 314 314 311 314 321 321 321 318 317 321 325 322 319 319 319 318 318 319 320 324 326 325
265 278 278 284 287 289 287 283 282 287 294 296 298 302 307 309 310 311 314 315 308 304 310 314 313 318 322 321 317 316 318 320 323 325 323 321 321 320 316 316 321 322 324 332
237 249 255 259 269 280 290 292 287 287 288 291 300 306 308 307 305 306 310 315 317 316 315 316 318 322 322 322 319 314 317 317 320 320 322 324 324 322 321 319 320 322 327 336
254 259 267 270 268 268 277 285 287 289 293 298 301 298 295 295 297 302 309 316 320 318 320 322 325 328 324 321 324 317 316 315 317 317 319 323 326 327 327 329 333 337 338 340
273 275 276 280 280 270 273 281 285 290 292 295 297 299 301 301 304 307 309 303 295 294 306 318 320 315 314 314 322 316 313 310 310 315 320 323 327 331 334 335 335 336 337 339
272 276 279 281 286 284 276 279 282 285 291 292 287 288 291 297 302 304 306 305 306 307 312 319 322 318 316 320 322 319 315 316 318 318 319 320 322 326 329 328 328 329 330 333
265 268 273 278 282 287 288 283 277 281 289 291 288 288 295 301 305 301 286 281 300 316 321 314 314 319 325 327 325 324 321 320 318 317 316 316 317 319 321 322 320 320 321 322
261 264 272 275 276 284 293 288 280 280 283 287 290 291 289 290 293 298 303 304 307 315 320 313 317 323 326 330 331 324 320 318 315 313 312 310 309 309 310 313 313 314 314 313
266 272 279 285 291 291 293 293 290 286 281 281 282 283 286 294 294 275 279 305 315 317 316 315 321 324 328 335 326 319 315 313 310 308 309 309 308 307 305 305 306 308 307 305
270 272 278 287 286 283 286 295 300 297 295 293 294 294 287 276 281 296 299 300 311 318 316 318 322 326 332 326 319 314 311 307 306 307 303 304 305 304 302 301 301 302 303 299
270 272 270 267 268 276 285 290 294 299 304 305 305 302 298 293 289 294 301 304 308 316 319 315 318 320 320 314 309 307 306 307 311 311 306 302 301 300 300 302 300 295 294 293
286 288 289 289 285 281 283 285 290 296 300 299 299 302 304 307 307 306 306 307 309 310 309 310 312 311 310 309 307 306 303 302 300 300 299 296 294 292 294 293 292 293 293 292